AAL2297 KJAX-KMCO

Flight info

Callsign AAL2297
Flight time 0h 34m
Altitude 19000
Route EXBOX2 EXBOX PRMUS/N0383F180 FORYU SNFLD3
Aircraft A321/M-SDE3FGHIRWY/LB1

Departure

Time 2026-05-04 01:30
Airport Jacksonville International Airport (KJAX)

Arrival

Time 2026-05-04 02:05
Airport Orlando International Airport (KMCO)
Time Latitude Longitude Altitude Speed Heading
2026-05-04 01:02 30.49325 -81.68617 39 ft 0 kts 105°
2026-05-04 01:19 30.49328 -81.68626 39 ft 4 kts 105°
2026-05-04 01:19 30.49335 -81.68656 36 ft 4 kts 108°
2026-05-04 01:19 30.49346 -81.68684 36 ft 4 kts 129°
2026-05-04 01:20 30.49366 -81.68703 37 ft 4 kts 161°
2026-05-04 01:20 30.49381 -81.68707 35 ft 1 kts 175°
2026-05-04 01:20 30.49383 -81.68708 35 ft 1 kts 175°
2026-05-04 01:24 30.49380 -81.68708 35 ft 2 kts 186°
2026-05-04 01:24 30.49359 -81.68768 37 ft 17 kts 249°
2026-05-04 01:25 30.49383 -81.68883 39 ft 12 kts 285°
2026-05-04 01:25 30.49398 -81.68973 37 ft 11 kts 297°
2026-05-04 01:25 30.49454 -81.69021 39 ft 10 kts 328°
2026-05-04 01:25 30.49510 -81.69060 39 ft 9 kts 329°
2026-05-04 01:26 30.49566 -81.69098 41 ft 10 kts 330°
2026-05-04 01:26 30.49619 -81.69133 42 ft 8 kts 330°
2026-05-04 01:26 30.49669 -81.69169 41 ft 9 kts 326°
2026-05-04 01:26 30.49682 -81.69222 42 ft 6 kts 256°
2026-05-04 01:27 30.49669 -81.69281 43 ft 8 kts 251°
2026-05-04 01:27 30.49651 -81.69342 42 ft 8 kts 251°
2026-05-04 01:27 30.49630 -81.69406 42 ft 9 kts 249°
2026-05-04 01:27 30.49606 -81.69476 41 ft 10 kts 249°
2026-05-04 01:28 30.49573 -81.69575 40 ft 15 kts 249°
2026-05-04 01:28 30.49536 -81.69689 36 ft 16 kts 250°
2026-05-04 01:28 30.49498 -81.69819 34 ft 18 kts 251°
2026-05-04 01:28 30.49504 -81.69923 34 ft 13 kts 318°
2026-05-04 01:29 30.49579 -81.69967 34 ft 12 kts 342°
2026-05-04 01:29 30.49639 -81.69932 35 ft 10 kts 55°
2026-05-04 01:29 30.49696 -81.69768 35 ft 52 kts 70°
2026-05-04 01:29 30.49900 -81.69119 40 ft 116 kts 70°
2026-05-04 01:30 30.50223 -81.68038 42 ft 164 kts 70°
2026-05-04 01:30 30.50632 -81.66728 466 ft 171 kts 69°
2026-05-04 01:30 30.50978 -81.65439 1143 ft 170 kts 82°
2026-05-04 01:30 30.50637 -81.64123 1840 ft 181 kts 134°
2026-05-04 01:31 30.49642 -81.63135 2454 ft 198 kts 144°
2026-05-04 01:31 30.48491 -81.62162 2737 ft 217 kts 145°
2026-05-04 01:31 30.47199 -81.61067 2920 ft 243 kts 144°
2026-05-04 01:31 30.45788 -81.59824 3293 ft 264 kts 143°
2026-05-04 01:32 30.44322 -81.58481 3998 ft 272 kts 142°
2026-05-04 01:32 30.42847 -81.57087 4818 ft 275 kts 141°
2026-05-04 01:32 30.41367 -81.55655 5611 ft 279 kts 141°
2026-05-04 01:32 30.39879 -81.54199 6403 ft 282 kts 140°
2026-05-04 01:33 30.38375 -81.52719 7176 ft 285 kts 140°
2026-05-04 01:33 30.36858 -81.51221 7939 ft 288 kts 140°
2026-05-04 01:33 30.35320 -81.49703 8683 ft 292 kts 140°
2026-05-04 01:33 30.33767 -81.48175 9411 ft 295 kts 140°
2026-05-04 01:34 30.32198 -81.46630 10115 ft 298 kts 140°
2026-05-04 01:34 30.30560 -81.45018 10366 ft 320 kts 140°
2026-05-04 01:34 30.28806 -81.43294 10570 ft 338 kts 140°
2026-05-04 01:34 30.27017 -81.41532 11118 ft 345 kts 140°
2026-05-04 01:35 30.25180 -81.39721 11744 ft 349 kts 140°
2026-05-04 01:35 30.23323 -81.37893 12388 ft 352 kts 140°
2026-05-04 01:35 30.21444 -81.36047 13025 ft 355 kts 140°
2026-05-04 01:35 30.19551 -81.34189 13653 ft 359 kts 140°
2026-05-04 01:36 30.17636 -81.32316 14271 ft 362 kts 140°
2026-05-04 01:36 30.15703 -81.30426 14862 ft 365 kts 140°
2026-05-04 01:36 30.13758 -81.28523 15444 ft 369 kts 140°
2026-05-04 01:36 30.11796 -81.26598 16013 ft 372 kts 140°
2026-05-04 01:37 30.09814 -81.24657 16566 ft 375 kts 140°
2026-05-04 01:37 30.07814 -81.22705 17103 ft 378 kts 140°
2026-05-04 01:37 30.05751 -81.20810 17613 ft 380 kts 147°
2026-05-04 01:37 30.03414 -81.19352 18105 ft 382 kts 159°
2026-05-04 01:38 30.01754 -81.18691 18428 ft 383 kts 166°
2026-05-04 01:38 29.99120 -81.18161 18900 ft 385 kts 175°
2026-05-04 01:38 29.96448 -81.17880 19053 ft 385 kts 176°
2026-05-04 01:38 29.93814 -81.17609 19094 ft 376 kts 176°
2026-05-04 01:39 29.91214 -81.17341 19091 ft 374 kts 175°
2026-05-04 01:39 29.88667 -81.16759 19091 ft 374 kts 163°
2026-05-04 01:39 29.86259 -81.15606 19090 ft 375 kts 152°
2026-05-04 01:39 29.84028 -81.14041 19088 ft 375 kts 152°
2026-05-04 01:40 29.81605 -81.12971 19091 ft 374 kts 168°
2026-05-04 01:40 29.79035 -81.12624 19092 ft 372 kts 181°
2026-05-04 01:40 29.76458 -81.12836 19092 ft 371 kts 187°
2026-05-04 01:40 29.73885 -81.13149 19091 ft 372 kts 187°
2026-05-04 01:41 29.71308 -81.13432 19092 ft 372 kts 186°
2026-05-04 01:41 29.68733 -81.13701 19093 ft 372 kts 186°
2026-05-04 01:41 29.66154 -81.13965 19094 ft 372 kts 186°
2026-05-04 01:41 29.63603 -81.14230 19095 ft 372 kts 186°
2026-05-04 01:42 29.61025 -81.14503 19097 ft 372 kts 186°
2026-05-04 01:42 29.58443 -81.14782 19098 ft 372 kts 186°
2026-05-04 01:42 29.55866 -81.15062 19098 ft 372 kts 186°
2026-05-04 01:42 29.53288 -81.15345 19099 ft 372 kts 186°
2026-05-04 01:43 29.50711 -81.15626 19100 ft 372 kts 186°
2026-05-04 01:43 29.48134 -81.15905 19100 ft 372 kts 186°
2026-05-04 01:43 29.45556 -81.16184 19101 ft 372 kts 186°
2026-05-04 01:43 29.42979 -81.16463 19101 ft 372 kts 186°
2026-05-04 01:44 29.40400 -81.16742 19101 ft 372 kts 186°
2026-05-04 01:44 29.37819 -81.17020 19101 ft 372 kts 186°
2026-05-04 01:44 29.35241 -81.17294 19101 ft 372 kts 186°
2026-05-04 01:44 29.32665 -81.17569 19102 ft 372 kts 186°
2026-05-04 01:45 29.30087 -81.17828 19102 ft 372 kts 183°
2026-05-04 01:45 29.27493 -81.17723 19103 ft 373 kts 176°
2026-05-04 01:45 29.22316 -81.17267 19103 ft 373 kts 176°
2026-05-04 01:46 29.19729 -81.16997 19101 ft 373 kts 172°
2026-05-04 01:46 29.17214 -81.16277 19100 ft 374 kts 161°
2026-05-04 01:46 29.14783 -81.15216 19097 ft 374 kts 160°
2026-05-04 01:46 29.12376 -81.14162 19084 ft 378 kts 160°
2026-05-04 01:47 29.09898 -81.13083 18400 ft 378 kts 160°
2026-05-04 01:47 29.07507 -81.12042 17888 ft 356 kts 160°
2026-05-04 01:47 29.05247 -81.11084 17442 ft 339 kts 161°
2026-05-04 01:47 29.03029 -81.10218 17024 ft 334 kts 162°
2026-05-04 01:48 29.00828 -81.09397 16626 ft 330 kts 163°
2026-05-04 01:48 28.98652 -81.08599 16212 ft 327 kts 163°
2026-05-04 01:48 28.96454 -81.08037 15819 ft 322 kts 174°
2026-05-04 01:48 28.94165 -81.07787 15461 ft 338 kts 175°
2026-05-04 01:49 28.91811 -81.07522 15073 ft 341 kts 175°
2026-05-04 01:49 28.89448 -81.07328 14685 ft 339 kts 182°
2026-05-04 01:49 28.87120 -81.07634 14306 ft 336 kts 194°
2026-05-04 01:49 28.84908 -81.08442 13932 ft 333 kts 201°
2026-05-04 01:50 28.82730 -81.09352 13555 ft 331 kts 201°
2026-05-04 01:50 28.80569 -81.10252 13182 ft 330 kts 201°
2026-05-04 01:50 28.78420 -81.11144 12812 ft 328 kts 201°
2026-05-04 01:50 28.76283 -81.12031 12444 ft 326 kts 201°
2026-05-04 01:51 28.74191 -81.12899 12134 ft 320 kts 201°
2026-05-04 01:51 28.72164 -81.13736 11685 ft 303 kts 201°
2026-05-04 01:51 28.70198 -81.14503 11317 ft 297 kts 195°
2026-05-04 01:51 28.68183 -81.15029 11067 ft 297 kts 194°
2026-05-04 01:52 28.66149 -81.15557 10811 ft 296 kts 194°
2026-05-04 01:52 28.64170 -81.16075 10459 ft 295 kts 194°
2026-05-04 01:52 28.62170 -81.16599 10003 ft 294 kts 194°
2026-05-04 01:52 28.60178 -81.17117 9533 ft 293 kts 194°
2026-05-04 01:53 28.58203 -81.17627 9235 ft 286 kts 194°
2026-05-04 01:53 28.56303 -81.18118 9098 ft 274 kts 194°
2026-05-04 01:53 28.54462 -81.18557 8827 ft 267 kts 188°
2026-05-04 01:53 28.52617 -81.18630 8676 ft 266 kts 181°
2026-05-04 01:54 28.50770 -81.18643 8356 ft 264 kts 182°
2026-05-04 01:54 28.48936 -81.18660 8000 ft 263 kts 182°
2026-05-04 01:54 28.47113 -81.18678 7641 ft 261 kts 182°
2026-05-04 01:54 28.45297 -81.18697 7279 ft 260 kts 182°
2026-05-04 01:55 28.43493 -81.18716 6925 ft 259 kts 182°
2026-05-04 01:55 28.41698 -81.18732 6566 ft 257 kts 182°
2026-05-04 01:55 28.39932 -81.18746 6212 ft 256 kts 182°
2026-05-04 01:55 28.38153 -81.18761 5870 ft 255 kts 182°
2026-05-04 01:56 28.36385 -81.18776 5512 ft 253 kts 182°
2026-05-04 01:56 28.34629 -81.18791 5176 ft 252 kts 182°
2026-05-04 01:56 28.32923 -81.18800 5088 ft 240 kts 182°
2026-05-04 01:56 28.31266 -81.18810 5000 ft 237 kts 182°
2026-05-04 01:57 28.29617 -81.18867 4880 ft 236 kts 185°
2026-05-04 01:57 28.27979 -81.18977 4762 ft 236 kts 185°
2026-05-04 01:57 28.26345 -81.19100 4631 ft 235 kts 185°
2026-05-04 01:57 28.24714 -81.19224 4513 ft 235 kts 185°
2026-05-04 01:58 28.23088 -81.19346 4391 ft 234 kts 185°
2026-05-04 01:58 28.21461 -81.19467 4265 ft 234 kts 185°
2026-05-04 01:58 28.19860 -81.19708 4149 ft 230 kts 202°
2026-05-04 01:58 28.18560 -81.20700 4027 ft 225 kts 232°
2026-05-04 01:59 28.17878 -81.22268 3908 ft 223 kts 258°
2026-05-04 01:59 28.17793 -81.24011 3770 ft 222 kts 279°
2026-05-04 01:59 28.18279 -81.25663 3623 ft 222 kts 300°
2026-05-04 01:59 28.19273 -81.26999 3504 ft 223 kts 321°
2026-05-04 02:00 28.20634 -81.27824 3377 ft 221 kts 342°
2026-05-04 02:00 28.22095 -81.28034 3256 ft 211 kts 358°
2026-05-04 02:00 28.23552 -81.28044 3184 ft 208 kts 358°
2026-05-04 02:00 28.24994 -81.28059 3096 ft 207 kts 358°
2026-05-04 02:01 28.26424 -81.28074 3026 ft 202 kts 358°
2026-05-04 02:01 28.27788 -81.28088 2831 ft 191 kts 358°
2026-05-04 02:01 28.29094 -81.28101 2587 ft 185 kts 358°
2026-05-04 02:01 28.30334 -81.28114 2367 ft 170 kts 357°
2026-05-04 02:02 28.31465 -81.28125 2143 ft 156 kts 357°
2026-05-04 02:02 28.32520 -81.28136 1942 ft 149 kts 357°
2026-05-04 02:02 28.33543 -81.28147 1743 ft 146 kts 357°
2026-05-04 02:02 28.34552 -81.28158 1557 ft 144 kts 357°
2026-05-04 02:03 28.35554 -81.28168 1365 ft 144 kts 357°
2026-05-04 02:03 28.36553 -81.28178 1173 ft 143 kts 357°
2026-05-04 02:03 28.37549 -81.28189 991 ft 143 kts 357°
2026-05-04 02:03 28.38543 -81.28199 798 ft 142 kts 357°
2026-05-04 02:04 28.39537 -81.28209 607 ft 142 kts 357°
2026-05-04 02:04 28.40526 -81.28219 409 ft 142 kts 358°
2026-05-04 02:04 28.41514 -81.28229 231 ft 142 kts 358°
2026-05-04 02:04 28.42489 -81.28240 105 ft 134 kts 359°
2026-05-04 02:05 28.43129 -81.28244 95 ft 50 kts 360°
2026-05-04 02:05 28.43245 -81.28245 97 ft 12 kts 360°
2026-05-04 02:05 28.43448 -81.28269 99 ft 34 kts 342°
2026-05-04 02:05 28.43561 -81.28355 99 ft 17 kts 328°
2026-05-04 02:06 28.43670 -81.28373 100 ft 16 kts 358°
2026-05-04 02:06 28.43775 -81.28375 101 ft 14 kts 360°
2026-05-04 02:06 28.43869 -81.28375 103 ft 12 kts 360°
2026-05-04 02:06 28.43946 -81.28381 105 ft 9 kts 328°
2026-05-04 02:07 28.43942 -81.28402 105 ft 2 kts 183°
2026-05-04 02:07 28.43918 -81.28404 104 ft 8 kts 186°
2026-05-04 02:07 28.43879 -81.28547 105 ft 22 kts 283°
2026-05-04 02:07 28.43873 -81.28723 106 ft 26 kts 269°
2026-05-04 02:08 28.43870 -81.28972 107 ft 33 kts 269°
2026-05-04 02:08 28.43864 -81.29216 97 ft 5 kts 246°
2026-05-04 02:08 28.43824 -81.29248 98 ft 9 kts 201°
2026-05-04 02:08 28.43766 -81.29261 98 ft 8 kts 187°
2026-05-04 02:09 28.43705 -81.29264 99 ft 13 kts 180°
2026-05-04 02:09 28.43582 -81.29276 102 ft 16 kts 212°
2026-05-04 02:09 28.43546 -81.29382 102 ft 14 kts 259°
2026-05-04 02:09 28.43546 -81.29487 101 ft 13 kts 272°
2026-05-04 02:10 28.43550 -81.29605 100 ft 17 kts 272°
2026-05-04 02:10 28.43549 -81.29738 101 ft 17 kts 268°
2026-05-04 02:10 28.43546 -81.29830 101 ft 8 kts 266°
2026-05-04 02:10 28.43526 -81.29885 101 ft 10 kts 237°
2026-05-04 02:11 28.43487 -81.29954 101 ft 12 kts 237°
2026-05-04 02:11 28.43474 -81.30019 101 ft 4 kts 268°
2026-05-04 02:11 28.43474 -81.30023 101 ft 0 kts 268°
2026-05-04 02:11 28.43474 -81.30022 101 ft 0 kts 268°